AirNav   Free SoundLink Mini II speaker
 
 506 users online  

HI58 Turtle Bay Resort Heliport
Kahuku, Hawaii, USA

GOING TO KAHUKU?


FAA INFORMATION EFFECTIVE 26 MARCH 2020

Location

FAA Identifier: HI58
Lat/Long: 21-42-17.5320N 158-00-20.0850W
21-42.292200N 158-00.334750W
21.7048700,-158.0055792
(estimated)
Elevation: 13 ft. / 4 m (estimated)
Variation: 11E (1985)
From city: 3 miles N of KAHUKU, HI
Time zone: UTC -10 (year round; does not observe DST)
Zip code: 96731

Heliport Operations

Heliport use: Private use. Permission required prior to landing
Activation date: 01/1987
Control tower: no
ARTCC: HONOLULU CONTROL FACILITY CENTER
FSS: HONOLULU FLIGHT SERVICE STATION
Attendance: 0800-1800
Wind indicator: yes
Segmented circle: no

Nearby radio navigation aids

VOR radial/distance  VOR name  Freq  Var
HNLr339/24.2HONOLULU VORTAC114.8011E
CKHr316/31.3KOKO HEAD VORTAC113.9011E

Heliport Services

Runway Information

Helipad H1

Dimensions: 125 x 125 ft. / 38 x 38 m
Surface: asphalt
Traffic pattern: leftleft

Heliport Ownership and Management from official FAA records

Ownership: Privately-owned
Owner: BRE TURTLE BAY RESORT LLC
57-091 KAMAHAMEHA HWY
KAHUKU, HI 96731
Phone 213-830-6300
Manager: CALVIN G. DORN
PO BOX 5371
KAILUAKONA, HI 96740
Phone 808-329-6601

Heliport Operational Statistics

Aircraft based on the field: 1
Helicopters: 1
    
Aircraft operations: avg 61/month *
100% air taxi
* for 12-month period ending 31 December 2001

Additional Remarks

FOR CD CTC HCF CENTER AT 808-840-6262

Instrument Procedures

There are no published instrument procedures at HI58.

Some nearby airports with instrument procedures:

PHNL - Daniel K Inouye International Airport (24 nm S)
PHJR - Kalaeloa Airport (John Rodgers Field) (24 nm S)
PHMK - Molokai Airport (61 nm SE)
PHLU - Kalaupapa Airport (65 nm SE)
PHLI - Lihue Airport (76 nm W)
 
Loc | Ops | Rwys | IFR | FBO | Links
Com | Nav | Svcs | Stats | Notes
Area around HI58 (Turtle Bay Resort Heliport)
 
Road maps at: MapQuest Bing Google
 
Aerial photo
No photo
 
Sectional chart

 
Airport distance calculator
Flying to Turtle Bay Resort Heliport? Find the distance to fly.

From to HI58

Sunrise and sunset
Times for 06-Apr-2020
 Local
(UTC-10)
 Zulu
(UTC)
Morning civil twilight05:5815:58
Sunrise06:2016:20
Sunset18:4804:48
Evening civil twilight19:1005:10

Current date and time
Zulu (UTC)  06-Apr-2020 11:50:47
Local (UTC-10)  06-Apr-2020 01:50:47
 
METAR
PHHI 
14nm S 
061056Z AUTO 00000KT 10SM FEW010 20/20 A2994 RMK AO2 SLP129 T02030201 $
PHNG 
21nm SE 
061057Z 00000KT CLR 22/19 A2990 RMK AO2 SLP120 T02220194
PHNL 
23nm S 
061053Z 18003KT 10SM FEW020 FEW045 FEW250 24/20 A2994 RMK AO2 SLP137 T02390200
PHJR 
24nm S 
061053Z AUTO 19003KT 10SM CLR 24/21 A2995 RMK AO2 SLP148 T02390206 TSNO
TAF
NOTAMs
Click for the latest NOTAMs
NOTAMs are issued by the DoD/FAA and will open in a separate window not controlled by AirNav.

 

 
 

Would you like to see your business listed on this page?

 If your business provides an interesting product or service to pilots, flight crews, aircraft, or users of the Turtle Bay Resort Heliport, you should consider listing it here.  To start the listing process, click on the button below
 
Add a business
 

Other Pages about Turtle Bay Resort Heliport

Update a link
 
Copyright © AirNav, LLC. All rights reserved. Privacy Policy  Contact